Погода в Бониту

Бразилия     11°57′55″S   41°16′23″W
темп.,
°C
ветер,
м/с
пор.,
м/с
влажн.,
%
обл.,
%
осадки,
мм/ч
давл.,
гПа
погр.,
м
28 июля, ср
ср2800:00+14ююв11985 0.0 101912
03:00+16юв1396100 0.0 1018186
06:00+16юв129765 0.1 1018108
09:00+22вюв22610 0.1 1019683
12:00+28юв33330 0.0 10162282
15:00+29юв342714 0.0 10122648
18:00+21всв11460 0.0 101413
21:00+17ссв11750 0.0 101711
29 июля, чт
чт2900:00+17св11800 0.0 101813
03:00+15ссв00910 0.0 101711
06:00+15с11890 0.0 101714
09:00+25вюв11470 0.0 1018546
12:00+31ююв34240 0.0 10152595
15:00+31юв33215 0.0 10122799
18:00+23в22372 0.0 101442
21:00+19ссв13595 0.0 101765
30 июля, пт
пт3000:00+17св25770 0.0 1018118
03:00+17вюв3993100 0.0 1018490
06:00+17вюв4109773 0.4 1020693
09:00+20юв498248 0.6 1022764
12:00+24вюв5759100 0.2 10201369
15:00+24вюв575786 0.3 10181484
18:00+18вюв41088100 0.3 1021692
21:00+17юв31098100 1.3 1023786
31 июля, сб
сб3100:00+16ююв31098100 0.3 1023734
03:00+15юв31197100 0.3 1022800
06:00+15юв4129492 0.0 1023722
09:00+16юв4108380 0.1 1025840
12:00+21юв596078 0.0 10231241
15:00+21юв595689 0.0 10211362
18:00+18юв487076 0.0 1023964
21:00+16юв5118798 0.1 1025925
1 августа, вс
вс100:00+15юв5119098 0.1 1025933
03:00+14юв41190100 0.2 1024912
06:00+14юв41188100 0.0 1025794
09:00+15юв51174100 0.1 10271027
12:00+17юв5867100 0.0 10251055
15:00+20вюв475491 0.0 10221468
18:00+18вюв376263 0.0 1023893
21:00+16вюв387564 0.0 1025797